This is the latest recevied weather packets stored in our database for station/object N2UGS-WX. If no packets are shown the sender has not sent any weather packets the latest 10 day(s).
| Time | Temp. | Humidity | Pressure | Rain* | Wind** | Luminosity | Snow |
|---|---|---|---|---|---|---|---|
| 1778082302 | 9.44° C | 95% | 1010.2 hPa | 0 mm | - | - | - |
| 1778081404 | 10° C | 95% | 1009.8 hPa | 0 mm | - | - | - |
| 1778080802 | 10° C | 97% | 1009.8 hPa | 0.25 mm | - | - | - |
| 1778079903 | 9.44° C | 97% | 1009.8 hPa | 0.25 mm | - | - | - |
| 1778079302 | 9.44° C | 98% | 1009.8 hPa | 0.51 mm | - | - | - |
| 1778078342 | 9.44° C | 99% | 1009.5 hPa | 0.51 mm | - | - | - |
| 1778077442 | 8.33° C | 98% | 1009.8 hPa | 0.25 mm | - | - | - |
| 1778076542 | 7.78° C | 99% | 1009.5 hPa | 0.25 mm | - | - | - |
| 1778075643 | 7.78° C | 99% | 1009.5 hPa | 0 mm | - | - | - |
| 1778074742 | 7.78° C | 99% | 1009.1 hPa | 0 mm | - | - | - |
| 1778073842 | 7.78° C | 99% | 1009.1 hPa | 0.25 mm | - | - | - |
| 1778073242 | 7.22° C | 99% | 1009.1 hPa | 0.51 mm | - | - | - |
| 1778072402 | 7.22° C | 99% | 1008.8 hPa | 0.51 mm | - | - | - |
| 1778071742 | 7.22° C | 99% | 1009.1 hPa | 0.51 mm | - | - | - |
| 1778070903 | 7.22° C | 99% | 1009.1 hPa | 0.51 mm | - | - | - |
| 1778070242 | 6.67° C | 99% | 1008.8 hPa | 0.76 mm | - | - | - |
| 1778069342 | 6.67° C | 99% | 1008.8 hPa | 0.51 mm | - | - | - |
| 1778068502 | 6.67° C | 99% | 1008.5 hPa | 0.76 mm | - | - | - |
| 1778067602 | 7.22° C | 99% | 1008.8 hPa | 0.76 mm | - | - | - |
| 1778066642 | 7.22° C | 99% | 1008.5 hPa | 0.51 mm | - | - | - |
| 1778065802 | 7.22° C | 100% | 1008.8 hPa | 0.51 mm | - | - | - |
| 1778064902 | 7.22° C | 100% | 1008.8 hPa | 0.76 mm | - | - | - |
| 1778063942 | 7.22° C | 99% | 1008.5 hPa | 0.76 mm | - | - | - |
| 1778063103 | 7.22° C | 99% | 1008.1 hPa | 1.27 mm | - | - | - |
| 1778062442 | 7.22° C | 99% | 1008.5 hPa | 1.52 mm | - | - | - |
* Rain latest hour (hover to see other rain measurements)
** Current wind speed in m/s (hover to see current wind gust speed)